TAP257 LPPT-LPPR

Flight info

Callsign TAP257
Flight time 0h 31m
Altitude 22000
Route IXIDA DCT ABLEG
Aircraft A320/M-SDE3FGHIRWY/LB1

Departure

Time 2026-05-04 02:25
Airport Lisbon Humberto Delgado Airport (LPPT)

Arrival

Time 2026-05-04 02:56
Airport Francisco de Sá Carneiro Airport (LPPR)
Time Latitude Longitude Altitude Speed Heading
2026-05-04 02:04 38.77161 -9.13124 337 ft 0 kts 79°
2026-05-04 02:14 38.77161 -9.13125 337 ft 1 kts 79°
2026-05-04 02:15 38.77155 -9.13156 334 ft 4 kts 70°
2026-05-04 02:15 38.77143 -9.13186 336 ft 4 kts 49°
2026-05-04 02:15 38.77124 -9.13204 335 ft 4 kts 358°
2026-05-04 02:15 38.77114 -9.13202 335 ft 1 kts 348°
2026-05-04 02:20 38.77123 -9.13205 335 ft 6 kts 348°
2026-05-04 02:20 38.77197 -9.13224 338 ft 14 kts 348°
2026-05-04 02:20 38.77299 -9.13253 338 ft 16 kts 342°
2026-05-04 02:20 38.77323 -9.13347 341 ft 11 kts 258°
2026-05-04 02:21 38.77304 -9.13448 351 ft 12 kts 258°
2026-05-04 02:21 38.77287 -9.13552 352 ft 12 kts 258°
2026-05-04 02:21 38.77269 -9.13663 351 ft 13 kts 258°
2026-05-04 02:21 38.77248 -9.13789 357 ft 13 kts 258°
2026-05-04 02:22 38.77182 -9.13871 353 ft 16 kts 203°
2026-05-04 02:22 38.77065 -9.13934 353 ft 21 kts 202°
2026-05-04 02:22 38.76917 -9.14013 352 ft 26 kts 202°
2026-05-04 02:22 38.76746 -9.14104 346 ft 21 kts 203°
2026-05-04 02:23 38.76640 -9.14161 337 ft 18 kts 202°
2026-05-04 02:23 38.76595 -9.14241 337 ft 14 kts 294°
2026-05-04 02:23 38.76636 -9.14362 334 ft 12 kts 299°
2026-05-04 02:23 38.76690 -9.14364 336 ft 0 kts 22°
2026-05-04 02:24 38.76735 -9.14340 336 ft 31 kts 22°
2026-05-04 02:24 38.77167 -9.14111 360 ft 99 kts 22°
2026-05-04 02:25 38.77981 -9.13675 364 ft 152 kts 22°
2026-05-04 02:25 38.79023 -9.13105 821 ft 157 kts 21°
2026-05-04 02:25 38.80029 -9.12588 1521 ft 160 kts 18°
2026-05-04 02:25 38.81137 -9.12028 1881 ft 181 kts 17°
2026-05-04 02:26 38.82320 -9.11245 2244 ft 203 kts 30°
2026-05-04 02:26 38.83561 -9.10207 2718 ft 225 kts 29°
2026-05-04 02:26 38.84948 -9.09087 3280 ft 245 kts 29°
2026-05-04 02:26 38.86448 -9.07912 3949 ft 257 kts 28°
2026-05-04 02:27 38.87994 -9.06719 4841 ft 262 kts 28°
2026-05-04 02:27 38.89572 -9.05506 5739 ft 266 kts 30°
2026-05-04 02:27 38.91029 -9.04028 6692 ft 269 kts 38°
2026-05-04 02:27 38.92452 -9.02400 7437 ft 276 kts 40°
2026-05-04 02:28 38.93877 -9.00702 8179 ft 284 kts 40°
2026-05-04 02:28 38.95318 -8.98933 8974 ft 289 kts 41°
2026-05-04 02:28 38.96793 -8.97132 9737 ft 296 kts 40°
2026-05-04 02:28 38.98325 -8.95312 10383 ft 306 kts 40°
2026-05-04 02:29 38.99964 -8.93398 10626 ft 330 kts 39°
2026-05-04 02:29 39.01726 -8.91354 10930 ft 350 kts 40°
2026-05-04 02:29 39.03525 -8.89260 11542 ft 357 kts 40°
2026-05-04 02:29 39.05378 -8.87095 12224 ft 362 kts 40°
2026-05-04 02:30 39.07254 -8.84899 12911 ft 367 kts 40°
2026-05-04 02:30 39.09159 -8.82668 13582 ft 373 kts 40°
2026-05-04 02:30 39.10431 -8.81174 14005 ft 376 kts 39°
2026-05-04 02:30 39.13036 -8.78116 14799 ft 382 kts 39°
2026-05-04 02:31 39.15010 -8.75793 15393 ft 387 kts 39°
2026-05-04 02:31 39.16980 -8.73406 15983 ft 392 kts 44°
2026-05-04 02:31 39.18808 -8.70755 16550 ft 398 kts 46°
2026-05-04 02:31 39.20652 -8.68055 17077 ft 404 kts 46°
2026-05-04 02:32 39.22519 -8.65318 17633 ft 409 kts 46°
2026-05-04 02:32 39.24409 -8.62546 18195 ft 414 kts 46°
2026-05-04 02:32 39.26321 -8.59743 18704 ft 418 kts 46°
2026-05-04 02:32 39.28248 -8.56919 19246 ft 420 kts 46°
2026-05-04 02:33 39.30184 -8.54073 19730 ft 424 kts 46°
2026-05-04 02:33 39.32141 -8.51194 20196 ft 429 kts 46°
2026-05-04 02:33 39.34118 -8.48287 20647 ft 433 kts 45°
2026-05-04 02:33 39.36363 -8.45714 21072 ft 431 kts 29°
2026-05-04 02:34 39.39035 -8.44039 21519 ft 425 kts 11°
2026-05-04 02:34 39.41914 -8.43393 21936 ft 417 kts 355°
2026-05-04 02:34 39.44814 -8.43354 22058 ft 417 kts 353°
2026-05-04 02:34 39.47681 -8.43351 22075 ft 418 kts 353°
2026-05-04 02:35 39.50590 -8.43358 22109 ft 417 kts 354°
2026-05-04 02:35 39.53488 -8.43363 22065 ft 416 kts 354°
2026-05-04 02:35 39.56377 -8.43363 22078 ft 415 kts 354°
2026-05-04 02:35 39.59269 -8.43360 22078 ft 415 kts 354°
2026-05-04 02:36 39.62152 -8.43356 22074 ft 415 kts 354°
2026-05-04 02:36 39.65044 -8.43350 22071 ft 415 kts 354°
2026-05-04 02:36 39.67929 -8.43343 22081 ft 415 kts 354°
2026-05-04 02:36 39.70821 -8.43335 22070 ft 415 kts 354°
2026-05-04 02:37 39.73707 -8.43327 22094 ft 414 kts 354°
2026-05-04 02:37 39.76587 -8.43319 22094 ft 414 kts 354°
2026-05-04 02:37 39.79464 -8.43312 22091 ft 413 kts 354°
2026-05-04 02:37 39.82340 -8.43307 22091 ft 413 kts 354°
2026-05-04 02:38 39.85214 -8.43302 22091 ft 413 kts 354°
2026-05-04 02:38 39.88088 -8.43294 22090 ft 413 kts 354°
2026-05-04 02:38 39.90959 -8.43284 22091 ft 412 kts 354°
2026-05-04 02:38 39.93827 -8.43277 22087 ft 412 kts 354°
2026-05-04 02:39 39.96696 -8.43272 22111 ft 412 kts 355°
2026-05-04 02:39 39.97626 -8.43270 22110 ft 412 kts 355°
2026-05-04 02:39 40.00754 -8.43263 22108 ft 411 kts 355°
2026-05-04 02:39 40.03608 -8.43259 22105 ft 411 kts 355°
2026-05-04 02:40 40.06466 -8.43257 22101 ft 410 kts 355°
2026-05-04 02:40 40.09295 -8.43253 21906 ft 402 kts 355°
2026-05-04 02:40 40.12058 -8.43243 21637 ft 392 kts 355°
2026-05-04 02:40 40.14766 -8.43233 21374 ft 387 kts 355°
2026-05-04 02:41 40.17449 -8.43226 21124 ft 384 kts 356°
2026-05-04 02:41 40.20095 -8.43220 20769 ft 377 kts 356°
2026-05-04 02:41 40.22711 -8.43215 20303 ft 375 kts 356°
2026-05-04 02:41 40.25307 -8.43208 19838 ft 372 kts 356°
2026-05-04 02:42 40.27896 -8.43201 19362 ft 371 kts 356°
2026-05-04 02:42 40.30466 -8.43196 18892 ft 369 kts 356°
2026-05-04 02:42 40.33029 -8.43192 18420 ft 368 kts 356°
2026-05-04 02:42 40.35585 -8.43188 17905 ft 366 kts 356°
2026-05-04 02:43 40.38094 -8.43185 17447 ft 364 kts 356°
2026-05-04 02:43 40.40615 -8.43178 16991 ft 361 kts 356°
2026-05-04 02:43 40.43128 -8.43169 16826 ft 350 kts 356°
2026-05-04 02:43 40.45492 -8.43160 16696 ft 339 kts 356°
2026-05-04 02:44 40.47823 -8.43152 16531 ft 330 kts 356°
2026-05-04 02:44 40.50094 -8.43148 16116 ft 324 kts 356°
2026-05-04 02:44 40.52336 -8.43147 15474 ft 321 kts 356°
2026-05-04 02:44 40.54562 -8.43147 14855 ft 319 kts 356°
2026-05-04 02:45 40.56770 -8.43144 14250 ft 316 kts 356°
2026-05-04 02:45 40.58966 -8.43140 13659 ft 313 kts 356°
2026-05-04 02:45 40.61138 -8.43136 13233 ft 312 kts 357°
2026-05-04 02:45 40.63302 -8.43132 12860 ft 311 kts 357°
2026-05-04 02:46 40.65438 -8.43128 12416 ft 305 kts 357°
2026-05-04 02:46 40.67560 -8.43125 12079 ft 303 kts 357°
2026-05-04 02:46 40.69672 -8.43122 11693 ft 302 kts 357°
2026-05-04 02:46 40.71732 -8.43288 11207 ft 293 kts 346°
2026-05-04 02:47 40.73642 -8.44070 10775 ft 285 kts 333°
2026-05-04 02:47 40.75401 -8.45274 10390 ft 286 kts 330°
2026-05-04 02:47 40.77161 -8.46495 10001 ft 285 kts 330°
2026-05-04 02:47 40.78913 -8.47701 9662 ft 283 kts 330°
2026-05-04 02:48 40.80634 -8.48883 9275 ft 282 kts 331°
2026-05-04 02:48 40.82351 -8.50063 8867 ft 276 kts 331°
2026-05-04 02:48 40.84032 -8.51222 8454 ft 267 kts 331°
2026-05-04 02:48 40.85653 -8.52342 8098 ft 262 kts 331°
2026-05-04 02:49 40.87259 -8.53452 7740 ft 261 kts 331°
2026-05-04 02:49 40.88866 -8.54564 7385 ft 259 kts 331°
2026-05-04 02:49 40.90455 -8.55666 7035 ft 257 kts 331°
2026-05-04 02:49 40.92037 -8.56766 6688 ft 256 kts 331°
2026-05-04 02:50 40.93607 -8.57858 6337 ft 254 kts 331°
2026-05-04 02:50 40.95163 -8.58939 5976 ft 252 kts 332°
2026-05-04 02:50 40.96705 -8.60006 5633 ft 249 kts 332°
2026-05-04 02:50 40.98240 -8.61027 5303 ft 246 kts 338°
2026-05-04 02:51 40.99885 -8.61579 4964 ft 241 kts 348°
2026-05-04 02:51 41.01489 -8.62003 4637 ft 229 kts 347°
2026-05-04 02:51 41.03031 -8.62416 4326 ft 224 kts 347°
2026-05-04 02:51 41.04521 -8.62815 3990 ft 218 kts 348°
2026-05-04 02:52 41.05980 -8.63205 3694 ft 210 kts 348°
2026-05-04 02:52 41.07392 -8.63582 3412 ft 204 kts 348°
2026-05-04 02:52 41.08761 -8.63941 3107 ft 197 kts 348°
2026-05-04 02:52 41.10071 -8.64279 2860 ft 186 kts 348°
2026-05-04 02:53 41.11314 -8.64600 2603 ft 179 kts 348°
2026-05-04 02:53 41.12524 -8.64914 2363 ft 173 kts 348°
2026-05-04 02:53 41.13695 -8.65221 2136 ft 171 kts 348°
2026-05-04 02:53 41.14458 -8.65420 2001 ft 164 kts 348°
2026-05-04 02:54 41.15862 -8.65787 1700 ft 146 kts 348°
2026-05-04 02:54 41.16516 -8.65959 1572 ft 143 kts 348°
2026-05-04 02:54 41.17486 -8.66212 1381 ft 141 kts 348°
2026-05-04 02:54 41.18442 -8.66462 1197 ft 140 kts 348°
2026-05-04 02:55 41.20340 -8.66957 847 ft 138 kts 349°
2026-05-04 02:55 41.21283 -8.67202 672 ft 138 kts 349°
2026-05-04 02:55 41.22225 -8.67453 493 ft 138 kts 348°
2026-05-04 02:56 41.23168 -8.67700 317 ft 138 kts 350°
2026-05-04 02:56 41.24105 -8.67938 223 ft 136 kts 350°
2026-05-04 02:56 41.24898 -8.68148 199 ft 83 kts 348°
2026-05-04 02:56 41.25194 -8.68228 184 ft 24 kts 348°
2026-05-04 02:57 41.25365 -8.68273 178 ft 26 kts 349°
2026-05-04 02:57 41.25503 -8.68309 175 ft 17 kts 348°
2026-05-04 02:57 41.25595 -8.68270 172 ft 15 kts 66°
2026-05-04 02:57 41.25608 -8.68137 170 ft 12 kts 108°
2026-05-04 02:58 41.25555 -8.68090 173 ft 8 kts 170°
2026-05-04 02:58 41.25512 -8.68080 174 ft 5 kts 170°
2026-05-04 02:58 41.25475 -8.68070 175 ft 10 kts 168°
2026-05-04 02:58 41.25358 -8.68037 179 ft 20 kts 169°